Simultaneous Nadir Overpasses (SNOs) Predictions

Prediction of SNOs between GOES-16 and NOAA-19 Satellite Orbit:

Table of predicted SNOs for the next 14.0 days since TLE Epoch: 8/5/2023
Index Date Time (GOES-16) GOES-16 Lat,Lon NOAA-19 Lat,Lon Distance(km) Time Diff (sec)
1 08/05/2023 13:55:27 -0.00, -75.21 0.61, -78.01 318.63 80
2 08/06/2023 13:40:42 -0.00, -75.22 -0.02, -75.06 18.33 80
3 08/07/2023 13:28:39 -0.00, -75.24 -0.72, -72.13 355.24 80
4 08/10/2023 01:51:31 0.00, -75.27 -0.38, -76.93 188.92 80
5 08/11/2023 01:36:47 0.00, -75.29 0.32, -73.99 148.42 80
6 08/12/2023 01:24:43 0.00, -75.31 0.97, -71.05 485.86 80
7 08/13/2023 13:59:19 -0.00, -75.35 0.79, -78.71 383.42 80
8 08/14/2023 13:47:15 -0.00, -75.38 0.08, -75.78 45.50 80
9 08/15/2023 13:32:31 -0.00, -75.40 -0.57, -72.83 292.67 80
10 08/18/2023 01:55:22 0.00, -75.46 -0.53, -77.63 247.97 80
